GW4329 Weather Reports


time (UTC)temp
F
wind
direction
speed
knots
gust
knots
rain 1hr
in
rain 24hr
in
rain mn
in
humidity
%
barometer
mb
20260507041803 41 339 1.7 4.3 0.00 0.00 0.00 89 1013.3
20260507040903 40 346 0.9 2.6 0.00 0.00 0.00 89 1013.1
20260507040003 41 333 1.7 3.5 0.00 0.00 0.00 89 1013.0
20260507035618 40 339 0.9 3.5 0.00 0.00 0.00 89 1013.0
20260507034503 41 336 1.7 2.6 0.00 0.00 0.00 89 1013.0
20260507033603 40 333 0.9 2.6 0.00 0.00 0.00 89 1013.0
20260507032703 40 337 0.9 2.6 0.00 0.00 0.00 88 1012.9
20260507031803 41 335 0.9 1.7 0.00 0.00 0.00 88 1013.0
20260507030903 41 335 0.9 2.6 0.00 0.00 0.00 88 1013.0
20260507030003 41 334 0.9 2.6 0.00 0.00 0.00 88 1013.0
20260507025403 41 339 0.9 2.6 0.00 0.00 0.00 88 1012.9
20260507024717 41 337 0.9 2.6 0.00 0.00 0.00 88 1012.9
20260507023603 41 348 0.9 1.7 0.00 0.00 0.00 88 1012.8
20260507022703 41 326 0.9 2.6 0.00 0.00 0.00 88 1012.7
20260507022019 42 330 0.9 2.6 0.00 0.00 0.00 88 1012.7
20260507020903 42 337 0.9 3.5 0.00 0.00 0.00 88 1012.5
20260507020003 42 332 1.7 2.6 0.00 0.00 0.00 87 1012.6
20260507015403 42 327 0.9 1.7 0.00 0.00 0.00 87 1012.6
20260507014503 42 345 0.9 1.7 0.00 0.00 0.00 87 1012.6
20260507013603 42 319 0.9 1.7 0.00 0.00 0.00 87 1012.6
20260507012703 42 322 0.9 2.6 0.00 0.00 0.00 87 1012.5
20260507011803 42 332 0.9 2.6 0.00 0.00 0.00 86 1012.5
20260507010003 43 323 0.9 1.7 0.00 0.00 0.00 86 1012.4
20260507005403 43 321 0.9 1.7 0.00 0.00 0.00 86 1012.4
20260507004503 43 309 0.9 1.7 0.00 0.00 0.00 86 1012.4
20260507003816 43 324 0.9 2.6 0.00 0.00 0.00 85 1012.3
20260507002703 44 351 1.7 2.6 0.00 0.00 0.00 85 1012.2
20260507001803 44 1 1.7 3.5 0.00 0.00 0.00 85 1012.2
20260507000903 44 5 1.7 3.5 0.00 0.00 0.00 85 1012.1
20260507000003 44 4 1.7 2.6 0.00 0.00 0.00 84 1012.2
20260506235403 44 354 0.9 2.6 0.00 0.00 0.00 84 1012.3
20260506234503 44 346 0.9 2.6 0.00 0.00 0.00 84 1012.3
20260506233603 45 333 1.7 3.5 0.00 0.00 0.00 83 1012.3
20260506232703 45 352 0.9 3.5 0.00 0.00 0.00 83 1012.3
20260506231803 45 340 0.9 3.5 0.00 0.00 0.00 82 1012.2
20260506230903 46 328 0.9 3.5 0.00 0.00 0.00 82 1012.3
20260506230003 46 330 0.9 2.6 0.00 0.00 0.00 81 1012.3
20260506225616 46 334 0.9 2.6 0.00 0.00 0.00 81 1012.3
20260506224503 46 335 0.9 2.6 0.00 0.00 0.00 80 1012.2
20260506223603 47 351 1.7 3.5 0.00 0.00 0.00 80 1012.2
20260506222703 47 348 1.7 3.5 0.00 0.00 0.00 79 1012.2
20260506221803 48 6 1.7 3.5 0.00 0.00 0.00 78 1012.2
20260506220903 48 360 2.6 5.2 0.00 0.00 0.00 77 1012.1
20260506220003 48 360 2.6 4.3 0.00 0.00 0.00 76 1012.1
20260506215403 48 3 2.6 4.3 0.00 0.00 0.00 76 1012.0
20260506214719 49 1 1.7 4.3 0.00 0.00 0.00 76 1011.9
20260506213603 49 1 2.6 6.1 0.00 0.00 0.00 75 1011.8
20260506212703 49 1 2.6 5.2 0.00 0.00 0.00 75 1011.7
20260506212017 50 358 1.7 6.1 0.00 0.00 0.00 75 1011.5
20260506210903 50 354 1.7 4.3 0.00 0.00 0.00 75 1011.4
20260506210003 50 359 1.7 6.1 0.00 0.00 0.00 75 1011.4
20260506205616 50 359 1.7 6.1 0.00 0.00 0.00 75 1011.4
20260506204503 50 359 1.7 6.1 0.00 0.00 0.00 76 1011.4
20260506203818 50 355 1.7 6.1 0.00 0.00 0.00 76 1011.4
20260506202703 50 7 2.6 5.2 0.00 0.00 0.00 77 1011.3
20260506201803 50 356 1.7 4.3 0.00 0.00 0.00 78 1011.2
20260506200903 50 346 0.9 1.7 0.00 0.00 0.00 79 1011.3
20260506200003 50 359 0.9 1.7 0.00 0.00 0.00 79 1011.1
20260506195403 50 359 0.0 0.9 0.00 0.00 0.00 79 1011.1
20260506194503 50 359 0.0 0.9 0.00 0.00 0.00 79 1011.0
20260506193603 50 359 0.9 0.9 0.00 0.00 0.00 79 1010.9
20260506192917 50 36 0.9 1.7 0.00 0.00 0.00 79 1010.8
20260506191803 50 101 0.0 0.9 0.00 0.00 0.00 79 1010.5
20260506190903 50 0 0.0 0.0 0.00 0.00 0.00 78 1010.4
20260506190003 50 0 0.0 0.0 0.00 0.00 0.00 77 1010.4
20260506185403 50 101 0.0 0.9 0.00 0.00 0.00 77 1010.3
20260506184503 51 104 0.0 0.9 0.00 0.00 0.00 76 1010.4
20260506183603 51 105 0.0 0.9 0.00 0.00 0.00 73 1010.3
20260506182703 52 0 0.0 0.0 0.00 0.00 0.00 72 1010.3
20260506181803 52 0 0.0 0.0 0.00 0.00 0.00 71 1010.2
20260506180903 52 0 0.0 0.0 0.00 0.00 0.00 71 1010.0
20260506180003 52 105 0.0 0.9 0.00 0.00 0.00 70 1010.0
20260506175618 52 105 0.0 0.9 0.00 0.00 0.00 70 1009.9
20260506174503 53 105 0.0 0.9 0.00 0.00 0.00 69 1009.7
20260506173603 53 105 0.0 0.9 0.00 0.00 0.00 70 1009.6
20260506172703 52 105 0.0 1.7 0.00 0.00 0.00 69 1009.4
20260506171803 52 95 0.9 1.7 0.00 0.00 0.00 68 1009.5
20260506170903 53 74 0.9 3.5 0.00 0.00 0.00 69 1009.4
20260506170003 53 113 0.0 0.9 0.00 0.00 0.00 68 1009.4
20260506165403 53 113 0.0 0.9 0.00 0.00 0.00 68 1009.4
20260506164503 53 114 0.9 0.9 0.00 0.00 0.00 68 1009.4
20260506163817 53 123 0.0 0.9 0.00 0.00 0.00 69 1009.5
20260506162703 53 147 0.0 0.9 0.00 0.00 0.00 68 1009.5
20260506161803 53 96 0.9 1.7 0.00 0.00 0.00 68 1009.4
20260506161119 53 99 0.9 1.7 0.00 0.00 0.00 68 1009.4
20260506160003 53 84 0.0 0.9 0.00 0.00 0.00 66 1009.3
20260506155403 53 83 0.0 1.7 0.00 0.00 0.00 67 1009.3
20260506154503 53 82 0.9 1.7 0.00 0.00 0.00 67 1009.3
20260506153603 53 87 0.9 1.7 0.00 0.00 0.00 67 1009.3
20260506152703 53 176 0.0 0.9 0.00 0.00 0.00 67 1009.4
20260506151803 53 139 0.0 1.7 0.00 0.00 0.00 66 1009.2
20260506151118 53 120 0.9 1.7 0.00 0.00 0.00 67 1009.2
20260506150003 52 105 0.9 1.7 0.00 0.00 0.00 67 1009.2
20260506145403 52 80 0.9 2.6 0.00 0.00 0.00 66 1009.2
20260506144503 52 78 0.9 2.6 0.00 0.00 0.00 66 1009.2
20260506143816 53 73 1.7 2.6 0.00 0.00 0.00 66 1009.2
20260506142703 53 68 1.7 3.5 0.00 0.00 0.00 66 1009.1
20260506141803 53 47 1.7 7.0 0.00 0.00 0.00 66 1009.0
20260506141118 53 60 1.7 5.2 0.00 0.00 0.00 67 1009.1
20260506140003 52 53 2.6 6.1 0.00 0.00 0.00 67 1009.1
20260506135617 52 49 2.6 6.1 0.00 0.00 0.00 67 1009.1
20260506134503 52 37 2.6 7.8 0.00 0.00 0.00 70 1009.0
20260506133603 53 61 1.7 4.3 0.00 0.00 0.00 69 1009.1
20260506132703 53 37 2.6 9.6 0.00 0.00 0.00 69 1009.1
20260506132018 53 52 1.7 7.0 0.00 0.00 0.00 69 1009.1
20260506131118 53 46 1.7 6.1 0.00 0.00 0.00 71 1009.0
20260506130003 52 49 1.7 4.3 0.00 0.00 0.00 72 1008.9
20260506125617 52 40 1.7 5.2 0.00 0.00 0.00 72 1009.0
20260506124503 52 37 1.7 7.0 0.00 0.00 0.00 72 1008.8
20260506123603 52 20 2.6 7.8 0.00 0.00 0.00 71 1008.9
20260506122703 52 12 2.6 8.7 0.00 0.00 0.00 70 1008.9
20260506121803 52 10 1.7 7.0 0.00 0.00 0.00 69 1008.7
20260506121117 52 4 2.6 7.8 0.00 0.00 0.00 67 1008.7
20260506120003 52 5 3.5 7.8 0.00 0.00 0.00 66 1008.6
20260506115616 52 4 2.6 7.0 0.00 0.00 0.00 68 1008.6
20260506114503 52 6 2.6 10.4 0.00 0.00 0.00 69 1008.6
20260506113603 52 8 2.6 9.6 0.00 0.00 0.00 68 1008.7
20260506112703 51 2 2.6 9.6 0.00 0.00 0.00 67 1008.7
20260506111803 52 10 2.6 7.0 0.00 0.00 0.00 67 1008.6
20260506110903 52 32 1.7 7.8 0.00 0.00 0.00 67 1008.6
20260506110003 52 9 3.5 7.8 0.00 0.00 0.00 65 1008.6
20260506105403 52 2 3.5 10.4 0.00 0.00 0.00 65 1008.6
20260506104719 52 14 4.3 10.4 0.00 0.00 0.00 64 1008.6
20260506103603 52 10 2.6 8.7 0.00 0.00 0.00 63 1008.4
20260506102703 52 15 3.5 10.4 0.00 0.00 0.00 63 1008.3
20260506102017 52 20 2.6 10.4 0.00 0.00 0.00 64 1008.3
20260506100903 52 43 1.7 5.2 0.00 0.00 0.00 66 1008.1
20260506100003 52 18 2.6 7.0 0.00 0.00 0.00 66 1008.1
20260506095403 52 14 2.6 7.0 0.00 0.00 0.00 66 1008.2
20260506094503 52 22 2.6 7.0 0.00 0.00 0.00 67 1008.2
20260506093603 52 15 2.6 9.6 0.00 0.00 0.00 68 1008.1
20260506092703 52 12 3.5 9.6 0.00 0.00 0.00 67 1008.0
20260506091803 52 13 2.6 8.7 0.00 0.00 0.00 68 1008.0
20260506090903 52 18 2.6 7.8 0.00 0.00 0.00 68 1007.9
20260506090003 51 2 2.6 6.1 0.00 0.00 0.00 70 1007.9
20260506085403 51 2 2.6 7.0 0.00 0.00 0.00 70 1007.9
20260506084503 51 3 2.6 7.0 0.00 0.00 0.00 70 1007.7
20260506083603 51 4 2.6 7.0 0.00 0.00 0.00 72 1007.7
20260506082703 51 15 1.7 5.2 0.00 0.00 0.00 72 1007.8
20260506081803 51 11 2.6 6.1 0.00 0.00 0.00 72 1007.7
20260506080903 51 19 1.7 4.3 0.00 0.00 0.00 72 1007.7
20260506072917 50 12 1.7 4.3 0.00 0.00 0.00 72 1007.7
20260506071803 50 14 1.7 7.8 0.00 0.00 0.00 74 1007.7
20260506070903 50 6 2.6 8.7 0.00 0.00 0.00 77 1007.6
20260506070219 50 21 2.6 8.7 0.00 0.00 0.00 77 1007.7
20260506061803 50 5 1.7 6.1 0.00 0.00 0.00 81 1007.2
20260506060903 50 8 2.6 6.1 0.00 0.00 0.00 81 1007.1
20260506060218 49 7 2.6 8.7 0.00 0.00 0.00 82 1007.1
20260506050903 49 357 2.6 6.1 0.00 0.00 0.00 83 1007.0
20260506044503 49 355 2.6 4.3 0.00 0.00 0.00 84 1007.1
20260506043816 49 5 2.6 6.1 0.00 0.00 0.00 84 1007.0
20260506042703 49 354 2.6 6.1 0.00 0.00 0.00 84 1007.0